Location: Theydon Bois
(51.6750°N, 0.1050°E)
Time: 08:14:13
(UTC+01:00)

ISS - Visible Passes

Search period start: 26 March 2017 00:00
Search period end: 05 April 2017 01:00
Orbit: 399 x 409 km, 51.6° (Epoch: 26 March)

Date Brightness Start Highest point End Pass type
(mag) Time Alt. Az. Time Alt. Az. Time Alt. Az.
27 Mar -1.5 20:50:49 10° S 20:51:10 11° S 20:51:10 11° S visible
28 Mar -1.9 21:33:19 10° SW 21:34:35 20° SSW 21:34:35 20° SSW visible
29 Mar -2.7 20:41:21 10° SSW 20:44:06 25° SSE 20:45:01 22° ESE visible
29 Mar -1.2 22:17:00 10° WSW 22:17:42 15° WSW 22:17:42 15° WSW visible
30 Mar -3.8 21:24:41 10° WSW 21:27:54 58° SSE 21:27:54 58° SSE visible
31 Mar -3.3 20:32:28 10° SW 20:35:34 41° SSE 20:37:56 15° E visible
31 Mar -2.4 22:08:37 10° W 22:10:36 34° W 22:10:36 34° W visible
01 Apr -4.0 21:16:11 10° WSW 21:19:28 79° SSE 21:20:29 41° E visible
01 Apr -0.9 22:52:39 10° W 22:53:08 13° W 22:53:08 13° W visible
02 Apr -3.8 20:23:49 10° WSW 20:27:03 64° SSE 20:30:15 10° E visible
02 Apr -3.3 22:00:13 10° W 22:02:54 57° W 22:02:54 57° W visible
03 Apr -3.9 21:07:45 10° W 21:11:01 89° N 21:12:35 28° E visible
03 Apr -1.3 22:44:13 10° W 22:45:14 18° W 22:45:14 18° W visible
04 Apr -3.8 20:15:17 10° WSW 20:18:32 83° S 20:21:50 10° E visible
04 Apr -3.8 21:51:45 10° W 21:54:51 75° SW 21:54:51 75° SW visible
